Время (UTC), дата Ветер
(°,м/с) 
Видим.   Явления Облачность Т
(°С)
Тd
(°С)
f(%) Тe
(°С)
Pmin
(гПа)
dP
(гПа)
Po
(мм)
O2
(г/м3)
Тmin Tmax R s Состояние
почвы
00 01.09.13 110 (В) 10 км  слаб. дождь  10/10 1500 м 
[]
+15.7 +12.5 81 +22  1011.4  0.3  748  283           
03 01.09.13 100 (В) 20000 м  {дождь}  10/8 1000 м средняя 
[Sc|As op]
+15.2 +12.7 85 +20  1009.6  -1.8  747  283  +14.8    0.5    влажная 
06 01.09.13 150 (ЮВ) 20000 м  {дождь}  10/10 960 м 
[Sc]
+17.8 +12.4 71 +23  1008.5  -1  746  280           
09 01.09.13 150 (ЮВ) 3{10}  10 км  слаб. дождь  10/8 1500 м средняя 
[Sc|Ac As]
+18.1 +13.4 74 +25  1007.2  -1.3  745  279           
12 01.09.13 150 (ЮВ) 3{11}  20000 м  {дождь}  9/6 1230 м средняя, верхняя 
[Cu Sc|Ac lent|Ci fib]
+21.7 +12.3 55 +26  1005.7  -1.2  744  275           
15 01.09.13 150 (ЮВ) 20000 м    6/0 средняя, верхняя 
[Ac lent|Ci fib]
+19.7 +11.8 60 +25  1004.8  -1  744  277    +22.2  0.3     
18 01.09.13 160 (Ю) 10 км  слаб. дождь  10/10 960 м 
[Sc]
+15.6 +13.3 86 +22  1004.6  -0.3  743  281           
21 01.09.13 160 (Ю) 10 км  {дождь}  10/10 960 м 
[Sc]
+15.1 +14 93 +23  1003.4  -1.3  742  281           
00 02.09.13 160 (Ю) 10 км    10/10 1230 м 
[Sc]
+15.6 +14.7 94 +25  1002.5  -0.9  742  280           
03 02.09.13 230 (ЮЗ) 20000 м    10/10 960 м 
[Sc]
+15.8 +14.5 92 +25  1002  -0.4  741  279  +15      влажная 
06 02.09.13 240 (ЮЗ) 10 км    9/9 540 м средняя 
[Sc|Ac lent]
+16.4 +13.6 84 +24  1002.4  0.4  742  279           
09 02.09.13 220 (ЮЗ) 10 км  в посл. час ливневой дождь  9/9 600 м кучево-дожд. 
[Cb cap]
+18.6 +14.1 75 +27  1002.1  -0.2  742  277           
12 02.09.13 250 (З) 4000 м  ливневой дождь  10/10 600 м кучево-дожд. 
[Cb cap]
+15.8 +14.3 91 +25  1002.8  0.5  742  280           
15 02.09.13 250 (З) 10 км  {ливн. осадки}  5/3 600 м кучево-дожд., средняя 
[Cb cap|Ac lent]
+17.4 +14.6 84 +26  1003.4  0.6  742  278    +19.4     
18 02.09.13 260 (З) 10 км  {ливн. осадки}  10/8 660 м средняя 
[St|Ac As]
+16 +13.6 86 +24  1005.1  1.6  744  280           
21 02.09.13 260 (З) 10 км    10/10 840 м 
[Sc]
+14.7 +12 84 +19  1005.9  0.8  744  282           
00 03.09.13 240 (ЮЗ) 10 км    5/0 средняя 
[Ac lent]
+13.7 +11.7 88 +18  1006.5  0.6  745  283           
03 03.09.13 130 (ЮВ) 20000 м    8/0 верхняя 
[Ci]
+11.9 +10.8 93 +15  1007.1  0.5  745  286  +11.8        влажная 
06 03.09.13 200 (Ю) 20000 м    3/0 средняя 
[Ac cast]
+18.6 +11.6 64 +23  1006.9  0.1  745  279           
09 03.09.13 240 (ЮЗ) 20000 м    10/8 900 м кучево-дожд., средняя 
[Cb calv|Ac As]
+18.3 +12.4 68 +24  1007.1  0.1  745  279           
12 03.09.13 270 (З) 20000 м  гроза без осадков{ливн. осадки}  8/5 600 м кучево-дожд., средняя 
[Cb calv|Ac cast]
+16.1 +14.9 93 +26  1007.2  -0.1  745  280           
15 03.09.13 250 (З) 20000 м    9/8 1050 м кучево-дожд., средняя, верхняя 
[Cb calv|Ac cast|Ci fib]
+18.6 +13 70 +26  1007.1  745  279    +20.7     
18 03.09.13 250 (З) 10 км    3/3 600 м 
[Sc diur, vesp]
+15.5 +11.6 78 +20  1008.7  1.4  746  282           
21 03.09.13 200 (Ю) 10 км    1/0 средняя 
[Ac lent]
+14.1 +11.6 85 +18  1009  0.2  746  284           
00 04.09.13 тихо ()   10 км    ясно 
+11.6 +9.4 86 +12  1009.4  0.3  747  287           
03 04.09.13 140 (ЮВ) 10 км    5/0 верхняя 
[Ci fib]
+10.7 +9.1 90 +12  1010.4  0.9  747  288  +10.6        влажная 
06 04.09.13 230 (ЮЗ) 20000 м    8/0 верхняя 
[Ci fib]
+16.9 +9.9 63 +19  1010.9  0.7  748  282           
09 04.09.13 200 (Ю) 20000 м    8/0 верхняя 
[Ci sp]
+19.2 +9 52 +21  1011.1  0.3  748  280           
12 04.09.13 160 (Ю) 20000 м    10/0 средняя 
[Ac As]
+19.2 +9.4 53 +21  1011  0.1  748  280           
18 04.09.13 090 (В) 10 км    10/0 средняя, верхняя 
[Ac As|Cs]
+16.4 +11.1 71 +20  1010.7  0.2  748  282           
21 04.09.13 080 (В) 10 км  зарница  10/8 1500 м кучево-дожд., средняя 
[Cb calv|As trans]
+15.7 +12 79 +20  1010.2  -0.5  747  282           
00 05.09.13 090 (В) 10 км  {гроза, ливн. осадки}  10/6 1500 м средняя 
[Sc diur, vesp|As op]
+14.6 +12.5 87 +20  1009.8  -0.4  747  283           
03 05.09.13 100 (В) 10 км    10/5 1000 м средняя, верхняя 
[Sc|Ac As|Cs]
+14.6 +13.1 91 +21  1009.8  0.1  747  283  +14.4      влажная 
06 05.09.13 130 (ЮВ) 20000 м  слаб. дождь  10/10 1020 м 
[Sc]
+16 +13.9 87 +24  1010.8  748  282           
09 05.09.13 080 (В) 20000 м  {дождь}  10/6 1000 м средняя, верхняя 
[Cu Sc|Ac lent|Ci sp]
+19.3 +15.3 78 +29  1010.5  0.1  748  278           
12 05.09.13 080 (В) 20000 м  {дождь}  10/8 600 м средняя 
[Sc|Ac cast]
+20.4 +15 71 +29  1010.5  748  277           
15 05.09.13 070 (В) 20000 м    10/10 840 м 
[Sc]
+19.7 +14.9 74 +30  1010.1  -0.4  747  278    +20.9     
18 05.09.13 070 (В) 10 км    8/0 средняя 
[Ac lent]
+18.1 +15 82 +27  1010.6  0.4  748  279           
21 05.09.13 060 (СВ) 10 км  в посл. час дождь  10/0 средняя 
[Sc diur, vesp|As op]
+16.2 +14.3 88 +24  1010.1  -0.5  747  281           
00 06.09.13 060 (СВ) 10 км  слаб. дождь  10/10 1000 м 
[St]
+15.4 +13.5 88 +21  1009.9  -0.3  747  282           
03 06.09.13 070 (В) 10 км  слаб. дождь  10/8 1000 м средняя 
[Sc|As trans]
+15.2 +13.1 87 +21  1009.5  -0.4  747  282  +15      мокрая 
06 06.09.13 080 (В) 10 км  слаб. дождь  10/10 480 м 
[Frnb|Ns]
+15.3 +13.6 90 +22  1009.7  0.1  747  282  +15         
09 06.09.13 070 (В) 3{10}  4000 м  дождь  10/10 480 м 
[Frnb|Ns]
+15.8 +14.1 90 +23  1009.1  -0.5  747  281           
12 06.09.13 100 (В) 4000 м  дождь  10/10 450 м 
[Frnb|Ns]
+16.1 +14.5 90 +24  1008.2  -0.8  746  281           
15 06.09.13 110 (В) 10 км  {дождь}  9/8 700 м средняя 
[Sc|Ac lent]
+15.9 +14.7 93 +25  1009.3  1.1  747  281    +16.2  21     
18 06.09.13 100 (В) 10 км  {дождь}  4/3 600 м средняя 
[Sc diur, vesp|Ac cast]
+14.9 +14 94 +23  1011.4  748  283           
21 06.09.13 130 (ЮВ) 10 км    ясно 
+14.2 +13.4 95 +21  1012.8  1.4  749  284           
00 07.09.13 130 (ЮВ) 10 км    ясно 
+13.5 +12.2 92 +19  1014.1  1.2  750  286           
03 07.09.13 130 (ЮВ) 10 км    3/0 верхняя 
[Ci fib]
+12.5 +11.6 94 +17  1015.4  1.3  751  287  +12.2        влажная 
06 07.09.13 150 (ЮВ) 20000 м    8/8 750 м 
[Cu med, cong]
+16.5 +13.5 82 +24  1016.7  1.4  752  283           
09 07.09.13 220 (ЮЗ) 20000 м    8/6 600 м верхняя 
[Cu med, cong|Ci fib]
+19.3 +9.9 54 +22  1016.9  0.3  752  281           
12 07.09.13 230 (ЮЗ) 20000 м    8/3 600 м средняя, верхняя 
[Cu med, cong|Ac cast|Ci fib]
+20 +9.7 51 +21  1017.4  0.5  753  281           
15 07.09.13 160 (Ю) 20000 м    10/3 600 м верхняя 
[Sc diur, vesp|Ci fib]
+16.8 +11 69 +20  1017.5  753  284    +20.3       
18 07.09.13 110 (В) 10 км    ясно 
+14 +10.5 79 +17  1018.6  0.9  754  287           
21 07.09.13 тихо ()   10 км    3/0 средняя 
[Ac lent]
+12.4 +10.4 88 +14  1018.3  -0.4  753  288           
00 08.09.13 тихо ()   10 км    ясно 
+11.2 +9.9 92 +12  1018.5  0.1  753  290           
03 08.09.13 тихо ()   10 км    5/0 верхняя 
[Ci fib]
+11 +10 94 +12  1018.3  0.1  753  290  +10.4        влажная 
06 08.09.13 тихо ()   20000 м    4/0 верхняя 
[Cu hum|Ci fib]
+17.8 +11.5 67 +21  1018.4  0.4  754  283           
09 08.09.13 310 (СЗ) 20000 м    8/8 1300 м 
[Cu med, cong]
+19.2 +11.1 59 +23  1017.8  -0.5  753  281           
12 08.09.13 050 (СВ) 20000 м    8/6 1000 м средняя 
[Cu med, cong|Ac cast]
+19.3 +9.6 53 +22  1016.8  -1  752  281           
15 08.09.13 130 (ЮВ) 20000 м    6/0 средняя, верхняя 
[Ac cast|Ci]
+18 +11.3 65 +22  1016.3  -0.6  752  282    +20.7       
18 08.09.13 тихо ()   10 км    6/0 средняя, верхняя 
[Ac lent|Ci fib]
+13.9 +11.4 85 +17  1016.7  0.1  752  286           
21 08.09.13 040 (СВ) 10 км    4/0 верхняя 
[Ci fib]
+13.8 +10.9 83 +17  1016.1  -0.5  752  286           
00 09.09.13 070 (В) 10 км    3/0 средняя, верхняя 
[As op|Ci fib]
+13.4 +9.9 79 +16  1015.6  -0.6  751  287           
03 09.09.13 060 (СВ) 10 км    9/9 1000 м 
[Sc]
+13.1 +10.2 83 +15  1015.5  0.1  751  287  +12.3        влажная 
06 09.09.13 090 (В) 20000 м    10/3 1000 м средняя, верхняя 
[Cu med, cong|Ac lent|Ci sp]
+16.1 +11.5 74 +20  1015.5  0.1  751  284           
09 09.09.13 180 (Ю) 20000 м  {дождь}  10/10 1300 м 
[Sc]
+15.6 +12.6 82 +22  1015.3  0.1  751  284           
12 09.09.13 360 (С) 20000 м  слаб. дождь  ясно 960 м 
+15.7 +12.3 80 +21  1014.8  -0.5  751  284           
15 09.09.13 020 (С) 10 км  в посл. час дождь  10/10 960 м 
[Sc]
+14.9 +12.3 84 +20  1014.4  -0.5  750  284    +17.3  0.3     
18 09.09.13 060 (СВ) 10 км  в посл. час дождь  10/10 360 м 
[Frnb|Ns]
+13.5 +11.9 90 +18  1014.6  0.1  751  286           
21 09.09.13 050 (СВ) 10 км  слаб. морось{дождь}  10/10 420 м 
[Frnb]
+12.8 +11.4 91 +16  1013.9  -0.7  750  287           
00 10.09.13 050 (СВ) 10 км  в посл. час морось{дождь}  10/10 930 м 
[Sc]
+13 +11.7 92 +16  1013.1  -0.7  749  286           
03 10.09.13 060 (СВ) 10 км  {дождь}  10/10 330 м 
[St]
+13.5 +12.2 92 +18  1013  749  285  +12.7      мокрая 
06 10.09.13 050 (СВ) 10 км  слаб. дождь  10/10 330 м 
[Frnb|Ns]
+13.3 +11.8 91 +17  1013.4  0.4  750  286           
09 10.09.13 050 (СВ) 4{10}  10 км    10/10 360 м 
[St]
+13.1 +10.8 86 +15  1013.8  750  286           
12 10.09.13 060 (СВ) 4-10{10}  10 км    9/0 средняя 
[Ac As]
+15.4 +9.3 67 +15  1013.1  -0.6  749  284           
15 10.09.13 050 (СВ) 4{11}  10 км    9/0 средняя, верхняя 
[Ac lent|Ci fib]
+12.8 +8.1 73 +12  1013.7  -0.6  750  287           
18 10.09.13 050 (СВ) 5-12{12}  10 км    8/3 600 м средняя 
[Sc|Ac lent]
+9.9 +6.3 78 +9  1014.9  750  291           
21 10.09.13 050 (СВ) 2{12}  10 км    8/0 средняя 
[Ac As]
+8.5 +5.6 82 +9  1015  -0.1  750  292           
00 11.09.13 040 (СВ) 10 км    10/10 630 м 
[Sc]
+7.9 +5.6 85 +7  1015.1  0.1  750  293           
03 11.09.13 020 (С) 10 км    10/10 330 м 
[St]
+8 +6 87 +7  1015.8  0.7  751  293  +7.9        влажная 
06 11.09.13 040 (СВ) 10 км  слаб. морось  10/10 300 м 
[St]
+8.6 +7.2 91 +9  1016.9  1.1  752  292  +7.9         
09 11.09.13 050 (СВ) 20000 м  {морось}  10/10 450 м 
[St]
+8.6 +7.2 91 +9  1016.9  0.6  752  293           
12 11.09.13 010 (С) 20000 м  {морось}  10/10 660 м 
[St]
+13.5 +8.9 74 +14  1017.5  0.3  752  287           
15 11.09.13 330 (СЗ) 10 км    10/8 870 м средняя 
[Sc|Ac cast]
+13.1 +8.9 76 +14  1018.1  0.5  753  288    +13.7       
18 11.09.13 350 (С) 10 км    8/8 1080 м 
[Sc]
+12.1 +8.8 80 +13  1019  0.8  753  289           
21 11.09.13 360 (С) 10 км    5/0 средняя 
[Ac lent]
+10.1 +8 87 +11  1019  0.1  753  291           
00 12.09.13 010 (С) 10 км    10/10 930 м 
[Sc]
+9.1 +7.4 89 +10  1019.5  0.5  754  293           
03 12.09.13 040 (СВ) 10 км    9/9 1000 м 
[Sc]
+9.1 +7.5 90 +10  1020.1  0.6  754  293  +8.9        влажная 
06 12.09.13 360 (С) 20000 м    6/0 средняя 
[Ac cast]
+13.7 +9.6 76 +15  1020.6  0.7  755  288           
09 12.09.13 060 (СВ) 20000 м    9/8 1140 м средняя, верхняя 
[Cu hum|Ac cast|Ci fib]
+16.6 +10.6 68 +20  1020.2  -0.3  755  285           
12 12.09.13 тихо ()   20000 м    8/8 1000 м верхняя 
[Cu med, cong|Ci fib]
+17.6 +10.2 62 +19  1019.9  -0.2  754  284           
15 12.09.13 тихо ()   20000 м    8/5 1000 м средняя, верхняя 
[Cu med, cong|Ac cast|Ci fib]
+15.7 +10.6 72 +18  1020  754  285    +18.8       
18 12.09.13 010 (С) 10 км    8/0 средняя, верхняя 
[Ac cast|Ci fib]
+13.8 +9.8 77 +16  1020.8  0.7  755  288           
21 12.09.13 050 (СВ) 10 км    4/0 средняя 
[Ac cast]
+12.7 +8.4 75 +13  1020.8  0.1  755  289           
00 13.09.13 080 (В) 10 км    8/0 средняя 
[Ac cast]
+12 +8.2 78 +12  1020.6  -0.2  755  290           
03 13.09.13 тихо ()   10 км  слаб. дождь  9/8 1000 м средняя 
[Sc|Ac cast]
+11.5 +8.8 83 +12  1020.8  0.2  755  290  +10        влажная 
06 13.09.13 060 (СВ) 20000 м  {дождь}  9/9 960 м 
[Sc]
+15.3 +10.8 74 +19  1021.1  0.5  755  286           
09 13.09.13 280 (З) 20000 м    10/6 720 м средняя, верхняя 
[Cu Sc|Ac lent|Ci fib]
+17.2 +11.1 67 +20  1020.8  -0.2  755  284           
15 13.09.13 280 (З) 10 км    10/8 750 м средняя, верхняя 
[Sc|Ac lent|Ci ing]
+14 +10.9 82 +17  1021.5  0.5  755  288    +18.3       
18 13.09.13 300 (СЗ) 10 км    3/0 средняя 
[Ac lent]
+12.6 +10 84 +15  1021.9  0.3  756  289           
21 13.09.13 320 (СЗ) 10 км    8/8 1500 м 
[Sc]
+11.8 +10 89 +14  1022.3  0.4  756  290           
00 14.09.13 260 (З) 10 км    10/8 1500 м средняя 
[Sc|As trans]
+12.1 +9.7 85 +14  1022.3  756  290           
03 14.09.13 тихо ()   10 км    6/3 1500 м средняя, верхняя 
[Sc|Ac cast|Ci fib]
+10.1 +8.9 92 +10  1022.6  756  292  +10.1        влажная 
06 14.09.13 280 (З) 10 км    6/1 1000 м верхняя 
[Cu med, cong|Ci fib]
+14.9 +8.9 67 +16  1022.7  0.4  756  287           
09 14.09.13 240 (ЮЗ) 10 км    9/9 1000 м 
[Sc]
+15.6 +7.3 58 +17  1022.7  756  287           
12 14.09.13 240 (ЮЗ) 10 км    9/0 средняя 
[Ac lent]
+15.7 +7.1 57 +17  1022.6  0.1  756  287           
15 14.09.13 тихо ()   10 км    6/0 средняя 
[Ac lent]
+14.1 +9.4 73 +14  1022.1  -0.6  756  288    +16.7       
18 14.09.13 тихо ()   10 км    8/0 средняя 
[Ac lent]
+10.8 +8.7 87 +11  1022.7  0.4  756  292           
21 14.09.13 130 (ЮВ) 10 км    8/0 средняя 
[Ac lent]
+11.5 +8.8 83 +13  1022.4  -0.2  756  291           
00 15.09.13 тихо ()   10 км    10/0 средняя 
[Ac lent]
+12.1 +8.4 78 +12  1022.3  0.1  756  290           
03 15.09.13 тихо ()   10 км    10/0 средняя 
[Ac lent]
+12.1 +7.4 73 +12  1022  -0.3  756  290  +10.4        влажная 
06 15.09.13 090 (В) 20000 м    10/0 средняя 
[Ac As]
+13.8 +8.3 69 +14  1022.1  0.2  756  288           
09 15.09.13 090 (В) 20000 м    9/0 1000 м средняя 
[Sc|Ac As]
+16.9 +8.8 59 +17  1021.2  -0.8  755  285           
12 15.09.13 130 (ЮВ) 20000 м    10/4 1000 м средняя, верхняя 
[Cu Sc|Ac lent|Ci fib]
+18 +9.6 58 +20  1020.4  -0.7  755  284           
15 15.09.13 110 (В) 10 км    10/0 средняя 
[Ac cast]
+16.1 +10.7 70 +19  1020.2  -0.7  755  285    +18.5       
18 15.09.13 100 (В) 10 км    10/0 средняя 
[As op]
+15.1 +10.8 75 +18  1020  -0.2  754  286           
21 15.09.13 100 (В) 10 км    10/0 средняя 
[Ac As]
+14.4 +10.5 77 +17  1019.6  -0.4  754  287           
00 16.09.13 090 (В) 10 км    10/0 средняя 
[Ac lent]
+13.6 +11.2 85 +17  1019.6  0.1  754  287           
03 16.09.13 090 (В) 10 км    10/0 средняя 
[Ac lent]
+13.2 +11.2 88 +16  1019.1  -0.5  754  288  +13.2        влажная 
06 16.09.13 100 (В) 20000 м    10/0 средняя 
[Ac und]
+15.6 +11.8 78 +20  1018.9  0.1  754  285  +13.2         
09 16.09.13 120 (ЮВ) 20000 м    8/0 верхняя 
[Ci sp]
+20.3 +10.9 55 +23  1018.4  -0.2  753  281           
12 16.09.13 100 (В) 20000 м    5/3 1000 м верхняя 
[Cu med, cong|Cc]
+20.8 +9.7 49 +22  1017.3  -1.1  753  280           
15 16.09.13 090 (В) 20000 м    8/0 средняя, верхняя 
[Ac inh|Cc]
+16.4 +11.4 72 +20  1017.2  -0.3  752  284    +20.9       
18 16.09.13 100 (В) 10 км    8/0 средняя, верхняя 
[Ac lent|Ci fib]
+14.9 +10.6 75 +17  1016.9  -0.3  752  285           
21 16.09.13 100 (В) 10 км    8/0 средняя, верхняя 
[Ac lent|Ci fib]
+14.2 +10.2 77 +15  1016.1  -0.9  751  286           
00 17.09.13 100 (В) 10 км    8/0 средняя, верхняя 
[Ac lent|Ci fib]
+14 +9.9 76 +15  1015.2  -0.9  751  286           
03 17.09.13 100 (В) 10 км    8/0 средняя, верхняя 
[Ac lent|Ci fib]
+13.1 +9.6 79 +14  1015.5  0.2  751  287  +13.1        влажная 
06 17.09.13 140 (ЮВ) 20000 м    9/3 1000 м средняя 
[Sc|Ac As]
+15.5 +9.6 68 +17  1015.8  0.4  751  285  +13.1         
09 17.09.13 160 (Ю) 20000 м    10/4 1000 м средняя, верхняя 
[Sc|Ac lent|Cs]
+18 +8.7 55 +19  1016  0.3  752  283           
12 17.09.13 140 (ЮВ) 4{12}  20000 м    10/8 1500 м средняя 
[Sc|As op]
+17 +8.6 58 +17  1015.7  -0.4  751  283           
15 17.09.13 120 (ЮВ) 20000 м  {дождь}  10/8 840 м средняя 
[Frnb|As op]
+13.8 +11.1 84 +17  1015.9  -0.4  751  286    +18.8       
18 17.09.13 130 (ЮВ) 10 км  {дождь}  10/10 870 м 
[Sc]
+12.9 +9.2 78 +13  1016.2  0.2  751  287           
21 17.09.13 120 (ЮВ) 10 км    8/0 средняя 
[Ac lent]
+12 +8.1 77 +13  1015.9  -0.3  751  289           
00 18.09.13 100 (В) 10 км  слаб. дождь  10/10 1200 м 
[Sc]
+10.7 +8.4 86 +11  1015.6  -0.4  751  290           
03 18.09.13 100 (В) 10 км  {дождь}  8/0 средняя 
[Ac lent]
+10.3 +7.6 83 +10  1015.5  0.1  751  290  +10.2      влажная 
06 18.09.13 140 (ЮВ) 20000 м  {дождь}  5/3 1000 м средняя 
[Cu med, cong|Ac cast]
+13.6 +8.8 73 +14  1015.5  0.2  751  287           
09 18.09.13 120 (ЮВ) 20000 м    9/9 600 м 
[Sc]
+15 +9.1 68 +16  1016  0.5  751  285           
12 18.09.13 120 (ЮВ) 20000 м    10/10 570 м 
[Sc]
+14.1 +9.8 75 +16  1015.9  0.1  751  286           
15 18.09.13 110 (В) 10 км    10/10 600 м 
[Sc]
+13.2 +10.3 83 +16  1016.2  0.2  751  287    +15.6       
18 18.09.13 100 (В) 10 км    10/10 660 м 
[Sc]
+12.7 +10.7 88 +16  1016.6  0.4  752  287           
21 18.09.13 130 (ЮВ) 10 км  {дождь}  10/5 600 м средняя 
[Sc|Ac As]
+11.3 +9.7 90 +13  1017  0.4  752  289           
00 19.09.13 120 (ЮВ) 10 км  {дождь}  10/0 средняя 
[Ac As]
+10.4 +8.5 88 +12  1017.6  0.5  752  291           
03 19.09.13 110 (В) 10 км  слаб. дождь  10/5 600 м средняя 
[Sc|Ac As]
+10.2 +8.6 90 +11  1018.1  0.4  753  291  +10.2    0.5    влажная 
06 19.09.13 120 (ЮВ) 10 км  слаб. дождь  10/0 средняя 
[Ac und]
+10.8 +9.4 91 +11  1018.6  0.5  753  290  +10.1         
09 19.09.13 130 (ЮВ) 20000 м  {дождь}  8/4 1000 м средняя, верхняя 
[Sc|Ac cast|Ci fib]
+13.5 +9.7 78 +15  1018.7  0.2  753  287           
12 19.09.13 130 (ЮВ) 20000 м  {дождь}  10/3 1000 м средняя 
[Sc|Ac cast]
+13.7 +6.6 62 +14  1018.8  0.1  753  288           
15 19.09.13 100 (В) 10 км    10/8 1380 м средняя 
[Sc|Ac und]
+12.7 +6.1 64 +13  1019.1  0.3  754  289    +14.6     
18 19.09.13 140 (ЮВ) 10 км    10/0 средняя 
[As op]
+12.8 +6.2 64 +13  1020.3  1.2  755  289           
21 19.09.13 120 (ЮВ) 10 км    9/0 средняя 
[Ac lent]
+11.2 +8 81 +11  1020.6  0.2  755  291           
00 20.09.13 110 (В) 10 км    9/0 средняя 
[Ac lent]
+10.4 +7.6 83 +11  1020.3  -0.4  754  292           
03 20.09.13 100 (В) 10 км  {дождь}  10/0 средняя 
[As op]
+9.8 +7.2 84 +9  1020  -0.3  754  292  +9.8        влажная 
06 20.09.13 130 (ЮВ) 10 км  слаб. дождь  10/6 1500 м средняя 
[Sc|As trans]
+10.7 +6.2 74 +10  1019.9  0.1  754  291           
09 20.09.13 110 (В) 10 км  слаб. дождь  10/10 1410 м 
[Ns]
+9.7 +7 83 +9  1019.3  -0.6  754  292           
12 20.09.13 130 (ЮВ) 4{10}  10 км  {дождь}  10/0 средняя 
[As op]
+11.2 +6.5 73 +10  1018.5  -0.6  753  290           
15 20.09.13 130 (ЮВ) 10 км  {дождь}  10/0 средняя 
[As op]
+10.8 +6.9 77 +11  1018  -0.6  753  291    +11.5  0.8     
18 20.09.13 130 (ЮВ) 10 км  слаб. дождь  10/10 1380 м 
[Ns]
+10.5 +7.7 83 +10  1017.3  -0.7  752  291           
21 20.09.13 130 (ЮВ) 10 км  слаб. дождь  10/10 1380 м 
[Ns]
+10.3 +8.7 90 +9  1016.2  -1  751  290           
00 21.09.13 130 (ЮВ) 10 км  в посл. час дождь  10/10 1230 м 
[Ns]
+10.9 +8.5 85 +10  1015.1  -1.1  751  289           
03 21.09.13 130 (ЮВ) 10 км  слаб. дождь  10/10 1300 м 
[Ns]
+10.1 +8 87 +9  1014.4  -0.7  750  290  +9.9      мокрая 
06 21.09.13 140 (ЮВ) 20000 м  {дождь}  9/6 1000 м средняя, верхняя 
[Sc|Ac lent|Ci fib]
+11.6 +6.2 69 +11  1012.6  -1.7  749  288           
09 21.09.13 140 (ЮВ) 20000 м  слаб. дождь  10/5 1000 м средняя 
[Sc|As trans]
+12.1 +5.7 65 +12  1012.1  -0.4  748  288           
12 21.09.13 140 (ЮВ) 20000 м  в посл. час дождь  10/8 1300 м средняя 
[Sc|Ac und]
+10.8 +6.5 75 +10  1011  -1.1  748  289           
15 21.09.13 140 (ЮВ) 10 км  в посл. час дождь  10/10 660 м 
[St]
+10.2 +7.2 82 +10  1010.3  -0.7  747  289    +12.2  0.5     
18 21.09.13 150 (ЮВ) 10 км  {дождь}  10/10 330 м 
[St]
+10.3 +7.8 84 +10  1010.5  0.2  747  289           
21 21.09.13 140 (ЮВ) 10 км  {морось}  10/10 360 м 
[St]
+10.5 +8.9 90 +11  1009.2  -1.2  746  288           
00 22.09.13 150 (ЮВ) 10 км  {морось}  10/10 360 м 
[St]
+11.3 +9.9 91 +13  1008.6  -0.5  746  287           
03 22.09.13 180 (Ю) 2000 м  дымка  9/9 150 м 
[St]
+11.4 +10.3 93 +15  1008  -0.5  745  286  +9.9        мокрая 
06 22.09.13 170 (Ю) 10 км    10/10 540 м 
[St]
+13.1 +11.5 90 +17  1007.8  0.1  745  284           
09 22.09.13 200 (Ю) 20000 м    10/6 1000 м средняя 
[Sc|Ac As]
+15.2 +10.3 73 +18  1006.8  -0.8  745  282           
12 22.09.13 210 (ЮЗ) 20000 м    10/5 1380 м средняя, верхняя 
[Sc|Ac As|Cs]
+15.9 +10 68 +18  1005.9  -0.9  744  281           
15 22.09.13 200 (Ю) 20000 м    9/5 1500 м средняя 
[Sc|Ac As]
+14 +10.3 78 +17  1005.1  -0.8  743  283    +17       
18 22.09.13 150 (ЮВ) 10 км  {дождь}  9/0 средняя 
[Ac cast]
+12.7 +10.4 86 +16  1004.4  -0.8  743  284           
21 22.09.13 160 (Ю) 10 км    8/0 средняя 
[Ac cast]
+12.2 +10.3 88 +15  1002.9  -1.4  742  284           
00 23.09.13 150 (ЮВ) 10 км    10/0 средняя 
[Ac As]
+11.3 +10.1 92 +14  1001.4  -1.5  740  285           
03 23.09.13 170 (Ю) 4000 м  в посл. час дождь  10/10 270 м 
[St]
+11.5 +10.6 94 +15  1000  -1.4  739  284  +11.2        мокрая 
06 23.09.13 150 (ЮВ) 10 км    10/10 720 м 
[Sc]
+12.7 +11.3 91 +17  998.6  -1.3  738  282           
09 23.09.13 170 (Ю) 20000 м    8/6 1000 м средняя 
[Cu Sc|Ac lent]
+14.6 +10.1 74 +17  996.6  -1.8  737  280           
12 23.09.13 210 (ЮЗ) 10 км  в посл. час ливневой дождь  9/8 600 м кучево-дожд., средняя, верхняя 
[Cb cap|Ac lent|Ci fib]
+12 +9.7 86 +14  995.8  -0.9  736  282           
15 23.09.13 тихо ()   10 км  {ливн. осадки}  10/8 600 м кучево-дожд., средняя, верхняя 
[Cb cap|Ac cast|Ci ing]
+11.2 +9.2 87 +12  995.9  736  283    +16.1     
18 23.09.13 140 (ЮВ) 10 км  {ливн. осадки}  9/0 средняя 
[Ac lent]
+10.5 +9.1 91 +12  995.6  -0.3  736  284           
21 23.09.13 160 (Ю) 10 км  {дождь}  9/0 средняя 
[Ac lent]
+10.6 +9.6 94 +13  994.9  -0.7  736  284           
00 24.09.13 140 (ЮВ) 10 км  {дождь}  1/0 средняя 
[Ac lent]
+9.6 +8.6 93 +11  994.6  -0.3  735  285           
03 24.09.13 140 (ЮВ) 10 км    10/10 720 м 
[Sc]
+10.2 +9.4 95 +11  993.1  -1.5  734  283  +9.4    0.3    влажная 
06 24.09.13 140 (ЮВ) 20000 м    10/10 480 м 
[Sc]
+11.8 +9.8 87 +12  992  -1  734  281           
09 24.09.13 130 (ЮВ) 10 км  слаб. дождь  10/10 360 м 
[Frnb|Ns]
+11.8 +9.8 87 +13  989.9  -2.1  732  281           
12 24.09.13 190 (Ю) 2{10}  20000 м  в посл. час дождь  9/9 1500 м средняя 
[Frnb|As op]
+10.8 +9.1 89 +11  989.7  -0.2  732  282           
15 24.09.13 240 (ЮЗ) 10 км  {ливн. осадки}  6/4 600 м верхняя 
[Cu med, cong|Ci fib]
+10.4 +7.4 82 +12  991  1.3  733  283    +12     
18 24.09.13 150 (ЮВ) 10 км  {ливн. осадки}  9/0 средняя 
[Ac cast]
+8.7 +6 83 +10  991.6  0.4  733  285           
21 24.09.13 130 (ЮВ) 10 км    9/0 средняя 
[Ac lent]
+8.9 +7.9 93 +9  991.1  -0.5  733  284           
00 25.09.13 140 (ЮВ) 10 км    4/0 средняя, верхняя 
[Ac cast|Ci fib]
+8.7 +6.1 84 +9  990.2  -0.8  732  285           
03 25.09.13 130 (ЮВ) 10 км    8/0 средняя, верхняя 
[Ac lent|Ci fib]
+8.6 +7.4 92 +7  990.1  0.1  732  285  +7.8        мокрая 
06 25.09.13 140 (ЮВ) 10 км  {морось}  10/8 700 м средняя, верхняя 
[Sc|As trans|Ci fib]
+9.6 +7.7 88 +9  989.3  -0.8  731  283           
09 25.09.13 140 (ЮВ) 10 км  ливневой дождь  10/8 700 м кучево-дожд., средняя 
[Cb cap|Ac As]
+7.8 +5.9 88 +8  988.9  -0.4  731  285           
12 25.09.13 190 (Ю) 10 км  слаб. ливневой дождь  10/10 500 м кучево-дожд. 
[Cb cap]
+9.3 +7.2 87 +9  990  1.2  732  284           
15 25.09.13 160 (Ю) 10 км  {ливн. осадки}  8/6 1000 м средняя 
[Sc diur, vesp|Ac As]
+8.3 +6.5 88 +9  991.8  1.7  733  286    +10.4     
18 25.09.13 180 (Ю) 10 км  {ливн. осадки}  10/0 средняя 
[Ac lent]
+7.5 +6 90 +8  992.9  734  287           
21 25.09.13 240 (ЮЗ) 10 км    10/6 1000 м средняя, верхняя 
[Cu hum|Ac lent|Ci fib]
+7.9 +5.7 86 +8  994.4  1.5  735  287           
00 26.09.13 250 (З) 10 км    10/6 600 м средняя 
[Cu hum|Ac cast]
+6.2 +3.6 83 +5  996.4  1.9  737  290           
03 26.09.13 260 (З) 10 км    10/10 960 м 
[Sc diur, vesp]
+6.2 +3.6 83 +6  996.4  1.2  737  290  +6         
06 26.09.13 260 (З) 10 км  {дождь}  10/10 600 м 
[Sc]
+6 +2.6 79 +5  999.2  1.5  739  291  +5.6         
09 26.09.13 270 (З) 10 км    10/10 600 м 
[Sc]
+6.2 +1.9 74 +5  1000.9  1.7  740  291           
12 26.09.13 260 (З) 10 км    9/9 1230 м 
[Sc]
+7.4 +2.1 69 +7  1002.2  1.3  741  290           
15 26.09.13 290 (З) 10 км  в посл. час ливневой дождь  9/8 600 м кучево-дожд., средняя 
[Cb cap|Ac lent]
+6.1 +2.8 79 +6  1003.4  1.1  742  292    +7.7       
18 26.09.13 270 (З) 10 км  {ливн. осадки}  8/5 1080 м средняя 
[Sc|Ac cast]
+5.9 +3.1 82 +6  1004.6  1.2  743  292           
21 26.09.13 250 (З) 10 км    10/8 660 м средняя 
[Sc|Ac As]
+5.4 +2.5 82 +5  1005.1  0.4  743  293           
00 27.09.13 260 (З) 10 км    8/8 540 м 
[St]
+4.5 +2.6 87 +5  1005.7  0.6  743  294           
03 27.09.13 280 (З) 10 км    ясно 480 м 
+4.7 +2.8 87 +4  1006.9  1.2  744  294  +4.4        влажная 
06 27.09.13 290 (З) 20000 м    8/8 480 м кучево-дожд., средняя 
[Cb calv|Ac lent]
+6.1 +2.8 79 +5  1008.1  1.3  745  293           
09 27.09.13 270 (З) 20000 м    8/5 600 м средняя 
[Cu Sc|Ac lent]
+7 +0 61 +8  1008.4  0.3  745  293           
12 27.09.13 150 (ЮВ) 20000 м    9/6 1000 м средняя 
[Sc|Ac cast]
+6.9 -0.4 60 +8  1008.6  0.2  746  293           
15 27.09.13 100 (В) 10 км    5/3 600 м средняя, верхняя 
[Sc diur, vesp|Ac lent|Ci fib]
+4.6 -0.9 67 +5  1007.9  -0.8  745  295    +7.7       
18 27.09.13 080 (В) 10 км    9/0 средняя 
[Ac lent]
+4.6 -1.5 65 +4  1006.6  -0.8  744  295           
21 27.09.13 090 (В) 10 км    9/0 средняя 
[Ac lent]
+3.9 -1.1 70 +3  1003.3  -3.3  742  295           
00 28.09.13 070 (В) 10 км  слаб. дождь  10/10 480 м 
[Ns]
+4.1 +1.2 81 +2  998.6  -4.6  738  293           
03 28.09.13 070 (В) 5-11{13}  4000 м  дождь  10/10 300 м 
[Frnb|Ns]
+2.8 +1.1 88 993.5  -4.6  734  293  +2.8      мокрая 
06 28.09.13 070 (В) 4{12}  10 км  слаб. дождь со снегом  10/10 240 м 
[Frnb]
+2.2 +0.9 91 990.9  -2.6  732  293  +1.2         
09 28.09.13 010 (С) 2{11}  10 км  слаб. дождь{снег}  10/10 200 м 
[Frnb|Ns]
+3.3 +1.9 90 +3  990.7  -0.2  732  291           
12 28.09.13 310 (СЗ) 0500 м  сильн. снег{дождь}  10/10 300 м 
[Frnb|Ns]
+1.4 +0.3 92 994  3.2  735  294           
15 28.09.13 290 (З) 4000 м  дождь{снег}  10/10 330 м 
[Frnb|Ns]
+2.8 +1.7 92 +1  997.6  3.7  737  294    +3.4  10     
18 28.09.13 260 (З) 10 км  в посл. час дождь{снег}  10/10 540 м 
[Frnb|Ns]
+4.3 +2.8 90 +3  999.5  739  293           
21 28.09.13 260 (З) 10 км  слаб. дождь  10/10 360 м 
[Frnb|Ns]
+4.1 +2.8 91 +3  1000.9  1.3  740  293           
00 29.09.13 260 (З) 10 км  слаб. дождь  10/10 360 м 
[Frnb|Ns]
+4.2 +2.8 91 +3  1001.5  0.6  740  293           
03 29.09.13 300 (СЗ) 10 км  слаб. дождь  10/10 270 м 
[Frnb|Ns]
+4 +2.9 92 +4  1002.5  0.9  741  294  +2.7      затоплена
водой 
06 29.09.13 290 (З) 10 км  слаб. дождь  10/10 500 м 
[Frnb]
+3.6 +2.2 91 +2  1003.7  1.2  742  295           
09 29.09.13 280 (З) 20000 м  в посл. час дождь{морось}  10/10 540 м 
[Frnb|Ns]
+4.8 +3.1 89 +4  1004.8  1.1  743  294           
12 29.09.13 310 (СЗ) 10 км  слаб. дождь{морось}  10/10 540 м 
[Frnb|Ns]
+4.7 +2.9 88 +4  1005.3  1.1  743  294           
15 29.09.13 310 (СЗ) 10 км    10/10 300 м 
[Frnb|Ns]
+3.8 +2.1 89 +3  1006  0.6  744  295    +5.2     
18 29.09.13 300 (СЗ) 4000 м  слаб. дождь со снегом  10/10 1000 м 
[Sc diur, vesp]
+3.1 +1.6 90 +3  1006.2  0.1  744  296           
21 29.09.13 280 (З) 4000 м  слаб. дождь со снегом{морось}  9/9 1500 м 
[Sc]
+2.2 +1 92 +2  1006.3  0.1  744  297           
00 30.09.13 290 (З) 4000 м  слаб. морось  10/8 1000 м средняя 
[Sc|As trans]
+1.8 +0.4 91 +1  1006.7  0.3  744  298           
03 30.09.13 280 (З) 10 км  слаб. дождь со снегом{морось}  10/10 200 м 
[Frnb]
+1.9 +0.7 92 +1  1006.6  0.1  744  298  +1.5    0.8    мокрая 
06 30.09.13 300 (СЗ) 10 км  слаб. дождь{снег}  10/10 210 м 
[Frnb|Ns]
+2.4 +0.8 89 +2  1006.5  744  297           
09 30.09.13 350 (С) 4000 м  дождь{снег}  10/10 210 м 
[Frnb|Ns]
+2.1 +0.9 92 +3  1006.5  744  297           
12 30.09.13 300 (СЗ) 10 км  {снег, дождь}  9/9 630 м кучево-дожд. 
[Cb cap]
+3.3 +0.8 84 +3  1007.1  0.6  744  296           
15 30.09.13 300 (СЗ) 10 км  слаб. дождь{снег}  10/10 540 м 
[Frnb|Ns]
+2.2 +0.5 89 +2  1007.6  745  298    +3.5     
18 30.09.13 300 (СЗ) 10 км  слаб. снег  9/5 600 м средняя 
[Ac cast]
+1.5 -0.4 87 +1  1007.7  0.1  745  298           
21 30.09.13 310 (СЗ) 4000 м  снег  10/10 420 м 
[Ns]
+0.9 -0.5 90 1007.9  0.2  745  299           
00 01.10.13 300 (СЗ) 10 км  слаб. снег  10/10 300 м 
[Frnb|Ns]
+0.6 -0.8 90 1008.3  0.4  745  300           
03 01.10.13 310 (СЗ) 10 км  в посл. час снег  10/10 480 м кучево-дожд. 
[Cb cap]
+0.7 -1 88 -1  1008.7  0.4  745  300  +0.3    0.6    мокрая 
06 01.10.13 300 (СЗ) 10 км    10/10 500 м кучево-дожд. 
[Cb cap]
+1.4 -0.9 85 +1  1009.6  0.9  746  299           
09 01.10.13 270 (З) 10 км  в посл. час крупа{снег}  10/10 720 м 
[Sc]
+1.8 -1.7 78 1010.7  1.1  747  299           
12 01.10.13 270 (З) 20000 м  в посл. час снег  9/6 600 м средняя 
[Sc|Ac cast]
+3 -1.7 71 +2  1011.5  0.8  748  298           
15 01.10.13 270 (З) 10 км    10/10 1110 м 
[Sc]
+2.3 -1.5 76 +1  1012.7  1.1  748  299    +3.1  0.0     
18 01.10.13 290 (З) 10 км    10/10 1080 м 
[Sc]
+2.5 -0.8 79 +1  1013.8  1.1  749  299           
21 01.10.13 280 (З) 10 км    10/10 480 м 
[Sc]
+2.6 +0 83 +1  1014.8  750  299           
00 02.10.13 290 (З) 10 км    10/10 570 м 
[Sc]
+2.3 -0.3 83 +2  1016.2  1.3  751  300           
03 02.10.13 310 (СЗ) 10 км    9/9 960 м 
[Sc]
+1.7 -1.2 81 +1  1017.4  1.2  752  301  +1.6        влажная 
06 02.10.13 300 (СЗ) 10 км    6/4 600 м средняя 
[Sc|Ac lent]
+3.8 -2.2 65 +3  1018.5  1.2  753  299           
09 02.10.13 290 (З) 10 км    9/9 600 м 
[Sc]
+4.2 -2.3 63 +3  1019.9  1.4  754  299           
Время (UTC), дата Ветер
(°,м/с) 
Видим.   Явления Облачность Т
(°С)
Тd
(°С)
f(%) Тe
(°С)
Pmin
(гПа)
dP
(гПа)
Po
(мм)
O2
(г/м3)
Тmin Tmax R s Состояние
почвы